{"data":{"norad_id":59527,"intl_designator":"2024-073S","name":"STARLINK-31452","alt_names":[],"object_type":"PAYLOAD","status":"ACTIVE","operator":null,"country":"US","launch_date":"2024-04-17","launch_site_code":"AFETR","launch_vehicle":null,"mission":null,"orbit_class":"UNKNOWN","rcs_meters":null,"size_class":null,"mass_kg":null,"dimensions":null,"purposes":["comms"],"wikipedia_slug":null,"has_3d_model":false,"image_url":null,"decayed_at":null,"tle_current":{"epoch":"2026-09-21T03:18:52.736832Z","epoch_age_seconds":113109,"freshness":"FRESH","line1":"1 59527U 24073S   26264.13811038  .00029251  00000+0  10617-2 0  9994","line2":"2 59527  43.0048 294.5084 0002371 217.9636 142.1049 15.27782347136061","mean_motion":15.27782347,"eccentricity":0.0002371,"inclination_deg":43.0048,"raan_deg":294.5084,"arg_perigee_deg":217.9636,"mean_anomaly_deg":142.1049,"bstar":0.0010617,"rev_number":13606,"period_min":94.254263562321,"perigee_km":480.81661962189,"apogee_km":484.0699067827,"semimajor_km":6860.5802632023,"source":"CELESTRAK","updated_at":"2026-09-22T09:00:48.966043Z"}}}